Fort Indiantown Gap, PA

9:07 PM EDT on October 22, 2019 (GMT -0400)
Muir Army Air Field

Weather History for KMUI - August, 2019

Change the Weather History Date:

Thursday, August 22, 2019

  Actual Average Record
Temperature  
Mean Temperature 78 °F -  
Max Temperature 88 °F 80 °F 93 °F (2002)
Min Temperature 67 °F 65 °F 54 °F (2008)
Cooling Degree Days 12    
Growing Degree Days 28 (Base 50)    
Moisture  
Dew Point 68 °F    
Average Humidity 83    
Maximum Humidity 100    
Minimum Humidity 48    
Precipitation  
Precipitation 0.00 in - - ()
Sea Level Pressure  
Sea Level Pressure 29.91 in    
Wind  
Wind Speed 2 mph (WNW)    
Max Wind Speed 12 mph    
Max Gust Speed 17 mph    
Visibility 7 miles    
Events Rain    
Averages and records for this station are not official NWS values.
T = Trace of Precipitation, MM = Missing Value Source: NWS Daily Summary

Daily Weather History Graph

Daily Weather History Graph

Search for Another Location

Airport or City:

Astronomy

Aug. 22, 2019 Rise Set
Actual Time 6:23 AM EDT 7:54 PM EDT
Civil Twilight 5:55 AM EDT 8:22 PM EDT
Nautical Twilight 5:20 AM EDT 8:57 PM EDT
Astronomical Twilight 4:43 AM EDT 9:33 PM EDT
Moon 11:41 PM EDT (8/22) 12:58 PM EDT (8/22)
Length of Visible Light 14h 27m
Length of Day
13h 30m
Waning Gibbous, 60% of the Moon is Illuminated
Aug 22
Waning Gibbous
Aug 23
Last Quarter
Aug 30
New
Sep 5
First Quarter
Sep 14
Full

Hourly Weather History & Observations

Time (EDT) Temp. Heat Index Dew Point Humidity Pressure Visibility Wind Dir Wind Speed Gust Speed Precip Events Conditions
12:56 AM 72.3 °F - 70.5 °F 94% 29.91 in 10.0 mi WSW 4.6 mph - N/A   Clear
1:56 AM 69.8 °F - 68.0 °F 94% 29.90 in 5.0 mi Calm Calm - N/A   Clear
1:57 AM 69.8 °F - 68.0 °F 94% 29.90 in 5.0 mi Calm Calm - N/A Rain Light Rain
2:06 AM 69.8 °F - 69.8 °F 100% 29.90 in 4.0 mi Calm Calm - N/A   Clear
2:14 AM 69.8 °F - 68.0 °F 94% 29.89 in 2.5 mi Calm Calm - N/A   Clear
2:22 AM 69.8 °F - 68.0 °F 94% 29.89 in 1.9 mi Calm Calm - N/A   Clear
2:30 AM 69.8 °F - 68.0 °F 94% 29.89 in 2.5 mi Calm Calm - N/A   Clear
2:46 AM 69.8 °F - 68.0 °F 94% 29.89 in 1.5 mi North 3.5 mph - N/A   Clear
2:50 AM 69.8 °F - 68.0 °F 94% 29.89 in 1.0 mi Calm Calm - N/A   Clear
2:56 AM 68.0 °F - 68.0 °F 100% 29.89 in 1.1 mi Calm Calm - 0.00 in   Clear
3:56 AM 69.8 °F - 68.0 °F 94% 29.88 in 10.0 mi Calm Calm - N/A   Clear
4:52 AM 68.0 °F - 66.2 °F 94% 29.88 in 1.0 mi Calm Calm - N/A   Clear
4:56 AM 67.6 °F - 66.7 °F 97% 29.88 in 1.0 mi Calm Calm - N/A   Clear
4:58 AM 68.0 °F - 68.0 °F 100% 29.89 in 2.2 mi Calm Calm - N/A   Clear
5:06 AM 68.0 °F - 68.0 °F 100% 29.89 in 8.0 mi Calm Calm - N/A   Clear
5:56 AM 68.0 °F - 68.0 °F 100% 29.90 in 10.0 mi Calm Calm - N/A   Clear
6:56 AM 69.3 °F - 67.5 °F 94% 29.93 in 10.0 mi Calm Calm - N/A   Clear
7:56 AM 70.3 °F - 68.5 °F 94% 29.93 in 9.0 mi North 3.5 mph - N/A   Partly Cloudy
8:56 AM 75.6 °F - 70.7 °F 85% 29.93 in 10.0 mi ESE 3.5 mph - N/A   Partly Cloudy
9:56 AM 80.8 °F 84.1 °F 69.6 °F 69% 29.93 in 10.0 mi WSW 8.1 mph - N/A   Partly Cloudy
10:56 AM 84.2 °F 88.4 °F 69.8 °F 62% 29.94 in 10.0 mi WNW 5.8 mph - N/A   Scattered Clouds
11:56 AM 84.4 °F 88.2 °F 68.9 °F 60% 29.94 in 10.0 mi Calm Calm - N/A   Scattered Clouds
12:56 PM 86.2 °F 89.1 °F 67.5 °F 53% 29.92 in 10.0 mi WNW 5.8 mph - N/A   Scattered Clouds
1:56 PM 87.6 °F 90.1 °F 66.0 °F 49% 29.92 in 10.0 mi West 10.4 mph 17.3 mph N/A   Mostly Cloudy
4:56 PM 88.0 °F 90.3 °F 65.8 °F 48% 29.86 in 10.0 mi West 3.5 mph - N/A   Mostly Cloudy
5:56 PM 86.9 °F 90.3 °F 67.6 °F 53% 29.87 in 10.0 mi Calm Calm - N/A   Mostly Cloudy
6:23 PM 84.2 °F 87.3 °F 68.0 °F 58% 29.87 in 10.0 mi WNW 3.5 mph - N/A Rain Light Rain
6:45 PM 77.0 °F - 69.8 °F 78% 29.90 in 10.0 mi SW 6.9 mph - N/A   Mostly Cloudy
6:56 PM 77.0 °F - 68.0 °F 74% 29.88 in 10.0 mi North 11.5 mph - 0.00 in   Mostly Cloudy
7:56 PM 75.0 °F - 66.6 °F 75% 29.90 in 10.0 mi North 5.8 mph - N/A   Mostly Cloudy
8:56 PM 74.3 °F - 67.3 °F 79% 29.93 in 10.0 mi Calm Calm - N/A   Mostly Cloudy
9:21 PM 73.4 °F - 68.0 °F 83% 29.93 in 10.0 mi Calm Calm - N/A Rain Light Rain
9:31 PM 73.4 °F - 68.0 °F 83% 29.94 in 10.0 mi Calm Calm - N/A   Overcast
9:56 PM 73.9 °F - 68.0 °F 82% 29.94 in 10.0 mi Calm Calm - 0.00 in   Overcast
10:56 PM 72.0 °F - 68.9 °F 90% 29.95 in 10.0 mi Calm Calm - 0.00 in   Overcast
11:56 PM 73.2 °F - 68.4 °F 85% 29.96 in 10.0 mi Calm Calm - N/A   Overcast